Location: Bayshore Village Mobile Home Park
(26.6945°N, 81.8642°W)
Time: 21:49:36
(UTC+00:00)

Spot 4 Rocket - Pass Details

Date: 17 June 2021
Orbit: 776 x 781 km, 98.7° (Epoch: 31 July)

Event Time Altitude Azimuth Distance (km) Brightness Sun altitude
Rises 08:37:55 0° 17° (NNE) 3,255 8.2 -22.1°
Reaches altitude 10° 08:40:16 10° 21° (NNE) 2,326 7.4 -21.8°
Maximum altitude 08:45:20 62° 102° (ESE) 870 4.4 -20.9°
Enters shadow 08:48:19 25° 175° (S) 1,541 5.2 -20.4°
